Weather History for Shannon, Ireland

Change the Weather History Date:

Friday, March 1, 2013

  Actual Average Record
Temperature  
Mean Temperature 42 °F -  
Max Temperature 51 °F 51 °F 55 °F (1997)
Min Temperature 33 °F 38 °F 23 °F (2001)
Degree Days  
Heating Degree Days 22    
Moisture  
Dew Point 36 °F    
Average Humidity 81    
Maximum Humidity 100    
Minimum Humidity 49    
Precipitation  
Precipitation 0.00 in 0.09 in - ()
Sea Level Pressure  
Sea Level Pressure 30.48 in    
Wind  
Wind Speed 6 mph ()    
Max Wind Speed 15 mph    
Max Gust Speed -    
Visibility 4.8 miles    
Events      
Averages and records for this station are not official NWS values.
T = Trace of Precipitation, MM = Missing Value Source: Averaged Metar Reports

Daily Weather History Graph

Daily Weather History Graph

Search for Another Location

Airport:

Trip Planner

Search our weather history database for the weather conditions in past years. The results will help you decide how hot, cold, wet, or windy it might be!

Date:

Astronomy

Mar. 01, 2013 Rise Set
Actual Time 7:22 AM GMT 6:14 PM GMT
Civil Twilight 6:47 AM GMT 6:49 PM GMT
Nautical Twilight 6:08 AM GMT 7:28 PM GMT
Astronomical Twilight 5:28 AM GMT 8:08 PM GMT
Moon 11:15 PM GMT (3/1) 8:23 AM GMT (3/1)
Length of Visible Light 12h 01m
Length of Day
10h 52m
Waning Gibbous, 85% of the Moon is Illuminated
Mar 1
Waning Gibbous
Mar 4
Last Quarter
Mar 11
New
Mar 19
First Quarter
Mar 27
Full

Hourly Weather History & Observations

Time (GMT) Temp. Windchill Dew Point Humidity Pressure Visibility Wind Dir Wind Speed Gust Speed Precip Events Conditions
12:00 AM 36 °F - 35 °F 92% 30.51 in 6 mi WNW 2.2 mph - -   Mist
12:00 AM 35.6 °F - 33.8 °F 93% 30.48 in 6.2 mi WNW 1.2 mph - N/A   Partly Cloudy
12:30 AM 35.6 °F 32.8 °F 33.8 °F 93% 30.48 in 6.2 mi NW 3.5 mph - N/A   Partly Cloudy
1:00 AM 35.6 °F 29.9 °F 35.6 °F 100% 30.48 in 6.2 mi NNE 6.9 mph - N/A   Partly Cloudy
1:30 AM 37.4 °F 29.8 °F 37.4 °F 100% 30.48 in 5.6 mi NE 11.5 mph - N/A   Partly Cloudy
2:00 AM 37.4 °F 30.3 °F 35.6 °F 93% 30.48 in 4.3 mi NE 10.4 mph - N/A   Partly Cloudy
2:30 AM 37.4 °F 30.8 °F 37.4 °F 100% 30.48 in 2.8 mi NNE 9.2 mph - N/A   Scattered Clouds
3:00 AM 37.4 °F 29.8 °F 37.4 °F 100% 30.48 in 2.8 mi NE 11.5 mph - N/A   Scattered Clouds
3:30 AM 37.4 °F 31.4 °F 37.4 °F 100% 30.48 in 2.5 mi NE 8.1 mph - N/A   Mostly Cloudy
4:00 AM 35.6 °F 28.0 °F 35.6 °F 100% 30.48 in 2.2 mi NNE 10.4 mph - N/A   Mostly Cloudy
4:30 AM 35.6 °F 29.9 °F 35.6 °F 100% 30.48 in 1.9 mi NNE 6.9 mph - N/A   Scattered Clouds
5:00 AM 35.6 °F 31.7 °F 33.8 °F 93% 30.48 in 1.9 mi North 4.6 mph - N/A   Partly Cloudy
5:30 AM 35.6 °F 31.7 °F 33.8 °F 93% 30.48 in 1.9 mi NNE 4.6 mph - N/A   Partly Cloudy
6:00 AM 35 °F - 35 °F 99% 30.50 in 2 mi NE 6.7 mph - -   Mist
6:00 AM 35.6 °F 30.7 °F 35.6 °F 100% 30.48 in 2.5 mi NE 5.8 mph - N/A   Mostly Cloudy
6:30 AM 37.4 °F 34.9 °F 37.4 °F 100% 30.48 in 2.2 mi NE 3.5 mph - N/A   Mostly Cloudy
7:00 AM 37.4 °F 33.8 °F 37.4 °F 100% 30.48 in 4.3 mi ENE 4.6 mph - N/A   Mostly Cloudy
7:30 AM 37.4 °F - 37.4 °F 100% 30.48 in 2.5 mi ENE 2.3 mph - N/A   Mostly Cloudy
8:00 AM 37.4 °F - 37.4 °F 100% 30.48 in 2.5 mi Variable 2.3 mph - N/A   Mostly Cloudy
8:30 AM 39.2 °F 35.0 °F 37.4 °F 93% 30.51 in 2.5 mi North 5.8 mph - N/A   Mostly Cloudy
9:00 AM 39.2 °F 33.6 °F 39.2 °F 100% 30.51 in 2.5 mi NE 8.1 mph - N/A   Mostly Cloudy
9:30 AM 41.0 °F 35.8 °F 41.0 °F 100% 30.51 in 2.5 mi NE 8.1 mph - N/A   Mostly Cloudy
10:00 AM 42.8 °F 39.3 °F 41.0 °F 93% 30.51 in 2.5 mi NE 5.8 mph - N/A   Mostly Cloudy
10:30 AM 42.8 °F 38.6 °F 41.0 °F 93% 30.51 in 2.2 mi NE 6.9 mph - N/A   Overcast
11:00 AM 42.8 °F 38.6 °F 41.0 °F 93% 30.51 in 2.5 mi ENE 6.9 mph - N/A   Overcast
11:30 AM 44.6 °F 42.2 °F 41.0 °F 87% 30.51 in 2.5 mi ENE 4.6 mph - N/A   Mostly Cloudy
12:00 PM 46 °F - 40 °F 72% 30.52 in 4 mi ENE 4.5 mph - -   Mist
12:00 PM 46.4 °F 44.3 °F 39.2 °F 76% 30.51 in 3.7 mi ENE 4.6 mph - N/A   Mostly Cloudy
12:30 PM 46.4 °F 44.3 °F 39.2 °F 76% 30.51 in 6.2 mi SSE 4.6 mph - N/A   Mostly Cloudy
1:00 PM 48.2 °F - 39.2 °F 71% 30.48 in 6.2 mi SSE 3.5 mph - N/A   Mostly Cloudy
1:30 PM 50.0 °F - 37.4 °F 62% 30.48 in 6.2 mi East 9.2 mph - N/A   Scattered Clouds
2:00 PM 50.0 °F - 35.6 °F 58% 30.48 in 6.2 mi East 15.0 mph - N/A   Scattered Clouds
2:30 PM 50.0 °F - 35.6 °F 58% 30.48 in 6.2 mi NE 11.5 mph - N/A   Mostly Cloudy
3:00 PM 50.0 °F - 33.8 °F 54% 30.48 in 6.2 mi ENE 11.5 mph - N/A   Mostly Cloudy
3:30 PM 50.0 °F - 33.8 °F 54% 30.45 in 6.2 mi ENE 10.4 mph - N/A   Mostly Cloudy
4:00 PM 50.0 °F - 33.8 °F 54% 30.45 in 6.2 mi East 9.2 mph - N/A   Mostly Cloudy
4:30 PM 48.2 °F - 33.8 °F 58% 30.45 in 6.2 mi East 9.2 mph - N/A   Mostly Cloudy
5:00 PM 48.2 °F - 33.8 °F 58% 30.45 in 6.2 mi ENE 4.6 mph - N/A   Mostly Cloudy
5:30 PM 48.2 °F - 35.6 °F 62% 30.45 in 6.2 mi NE 4.6 mph - N/A   Mostly Cloudy
6:00 PM 48 °F - 35 °F 49% 30.46 in 16 mi East 4.5 mph - -   Mostly Cloudy
6:00 PM 48.2 °F - 35.6 °F 62% 30.45 in 6.2 mi East 4.6 mph - N/A   Mostly Cloudy
6:30 PM 48.2 °F - 33.8 °F 58% 30.45 in 6.2 mi East 8.1 mph - N/A   Mostly Cloudy
7:00 PM 46.4 °F 41.9 °F 33.8 °F 62% 30.45 in 6.2 mi ENE 9.2 mph - N/A   Mostly Cloudy
7:30 PM 46.4 °F 42.9 °F 33.8 °F 62% 30.48 in 6.2 mi ENE 6.9 mph - N/A   Mostly Cloudy
8:00 PM 42.8 °F 39.3 °F 33.8 °F 70% 30.48 in 6.2 mi NE 5.8 mph - N/A   Mostly Cloudy
8:30 PM 41.0 °F 36.4 °F 32.0 °F 70% 30.48 in 6.2 mi NNE 6.9 mph - N/A   Scattered Clouds
9:00 PM 41.0 °F 36.4 °F 32.0 °F 70% 30.48 in 6.2 mi ENE 6.9 mph - N/A   Scattered Clouds
9:30 PM 37.4 °F 32.8 °F 30.2 °F 75% 30.48 in 6.2 mi ENE 5.8 mph - N/A   Scattered Clouds
10:00 PM 35.6 °F 30.7 °F 30.2 °F 81% 30.48 in 6.2 mi NE 5.8 mph - N/A   Partly Cloudy
10:30 PM 35.6 °F 29.9 °F 30.2 °F 81% 30.48 in 6.2 mi ENE 6.9 mph - N/A   Partly Cloudy
11:00 PM 35.6 °F 30.7 °F 30.2 °F 81% 30.48 in 6.2 mi NE 5.8 mph - N/A   Partly Cloudy
11:30 PM 33.8 °F 27.0 °F 30.2 °F 87% 30.48 in 6.2 mi NE 8.1 mph - N/A   Partly Cloudy